Date,TemperatureHighF,TemperatureAvgF,TemperatureLowF,DewpointHighF,DewpointAvgF,DewpointLowF,HumidityHigh,HumidityAvg,HumidityLow,PressureMaxIn,PressureMinIn,WindSpeedMaxMPH,WindSpeedAvgMPH,GustSpeedMaxMPH,PrecipitationSumIn
2013-1-1,25.6,9.4,-0.9,14.8,3.6,-5.8,84,77,62,30.75,30.44,5,1,6,0.01
2013-1-2,21.1,3.0,-7.1,10.1,-2.9,-12.4,82,76,61,30.85,30.61,4,1,5,0.00
2013-1-3,21.9,-0.4,-11.8,8.7,-7.1,-17.2,81,73,56,31.03,30.77,4,1,4,0.00
2013-1-4,20.5,0.9,-9.8,7.3,-6.0,-15.0,89,73,53,30.93,30.66,4,1,5,0.00
2013-1-5,22.0,0.2,-14.0,8.1,-6.8,-19.9,83,72,54,31.03,30.76,5,1,7,0.00
2013-1-6,15.7,2.5,-10.2,6.6,-3.7,-15.5,89,75,65,30.92,30.57,4,1,4,0.00
2013-1-7,22.9,4.9,-6.8,11.2,-1.6,-11.9,80,75,60,30.64,30.44,6,1,7,0.00
2013-1-8,28.3,9.0,-3.0,14.2,1.9,-8.2,81,73,55,30.79,30.45,4,1,5,0.01
2013-1-9,33.8,11.2,-1.3,17.9,3.9,-6.3,81,73,50,30.88,30.43,4,1,6,0.00
2013-1-10,44.6,17.3,1.1,27.9,10.0,-3.6,85,74,46,30.44,29.54,22,3,34,0.00
2013-1-11,41.8,24.5,2.4,30.4,12.9,-3.9,88,63,39,30.19,29.51,22,10,28,0.00
2013-1-12,20.4,2.0,-9.3,6.4,-5.5,-14.8,79,71,51,30.48,30.18,4,1,5,0.00
2013-1-13,19.4,4.2,-7.2,9.2,-2.3,-12.5,79,74,62,30.53,30.35,5,1,6,0.00
2013-1-14,15.3,-4.6,-17.4,0.2,-12.2,-23.5,77,70,49,30.83,30.50,4,1,5,0.00
2013-1-15,18.7,-1.6,-17.5,3.7,-9.8,-23.6,77,68,50,31.03,30.77,5,1,6,0.00
2013-1-16,23.4,4.5,-7.6,7.2,-3.6,-13.4,79,69,48,31.07,30.82,7,1,9,0.00
2013-1-17,26.4,5.9,-5.7,12.1,-1.5,-10.8,80,72,53,31.08,30.82,4,1,6,0.00
2013-1-18,27.6,6.3,-6.9,14.6,-0.7,-12.0,79,73,56,30.98,30.71,4,1,5,0.00
2013-1-19,30.4,8.0,-5.6,16.6,0.8,-11.0,80,73,55,30.98,30.72,4,1,5,0.00
2013-1-20,27.9,7.0,-5.4,15.2,0.7,-10.8,83,75,57,30.92,30.64,3,1,4,0.00
2013-1-21,31.1,8.6,-5.4,17.2,1.5,-10.8,80,73,53,30.90,30.64,5,1,5,0.00
2013-1-22,31.7,9.0,-4.8,16.5,1.6,-9.9,89,72,51,30.90,30.64,4,1,5,0.00
2013-1-23,29.2,10.2,-4.6,15.9,3.3,-9.7,80,74,56,30.91,30.69,3,1,5,0.00
2013-1-24,32.1,23.0,8.1,23.8,15.6,2.9,81,73,62,30.71,30.49,4,1,5,0.00
2013-1-25,35.9,31.7,29.0,29.7,26.9,23.9,89,82,74,30.49,30.31,2,0,3,0.02
2013-1-26,36.6,34.0,32.0,34.2,31.4,29.2,91,90,89,30.31,29.89,3,0,3,0.30
2013-1-27,44.3,34.8,29.1,37.2,31.9,26.3,92,89,74,29.99,29.76,8,1,15,0.04
2013-1-28,41.1,32.8,27.1,34.2,26.9,14.8,91,79,59,29.93,29.74,16,5,19,0.02
2013-1-29,34.1,24.9,16.4,20.3,16.3,10.9,83,70,52,30.26,29.92,8,3,11,0.00
2013-1-30,36.4,24.2,14.1,21.5,16.5,10.2,85,74,49,30.41,30.25,5,1,5,0.00
2013-1-31,40.9,26.5,14.6,27.6,19.8,10.6,86,76,56,30.55,30.34,4,1,6,0.00
2013-2-1,43.8,27.9,15.8,29.0,21.1,12.1,87,77,53,30.52,30.34,4,1,5,0.01
2013-2-2,46.8,30.3,16.0,29.6,22.2,12.0,87,74,45,30.70,30.44,7,1,9,0.00
2013-2-3,38.9,29.4,23.4,28.7,24.1,20.0,89,81,62,30.44,30.22,3,0,4,0.00
2013-2-4,44.4,29.3,18.1,30.4,23.1,14.7,88,78,57,30.38,30.19,6,1,8,0.01
2013-2-5,48.8,32.2,19.9,30.2,23.8,16.7,88,73,46,30.36,30.05,5,1,6,0.01
2013-2-6,48.2,32.8,24.4,32.7,25.8,20.5,88,77,50,30.20,29.99,6,1,9,0.00
2013-2-7,50.8,33.1,19.9,31.7,24.2,16.7,88,72,44,30.37,30.07,7,1,9,0.00
2013-2-8,55.8,39.9,26.3,31.5,25.4,19.2,85,58,34,30.08,29.58,22,6,30,0.00
2013-2-9,42.7,34.8,29.6,32.7,27.5,23.3,89,75,53,29.80,29.60,13,3,17,0.06
2013-2-10,39.2,31.3,25.8,28.5,24.8,22.4,89,77,56,29.99,29.80,10,1,11,0.04
2013-2-11,38.1,28.6,18.2,26.3,22.2,13.1,88,77,51,30.30,29.94,8,3,11,0.04
2013-2-12,39.4,24.9,13.2,17.9,14.2,8.4,84,66,38,30.49,30.28,5,1,7,0.00
2013-2-13,42.5,28.5,16.6,24.3,18.8,12.1,92,69,44,30.50,30.28,7,1,7,0.00
2013-2-14,49.6,33.2,23.9,29.5,23.3,19.8,86,70,37,30.41,30.23,4,1,6,0.00
2013-2-15,50.7,31.9,18.7,25.9,20.8,14.9,87,67,32,30.57,30.36,4,1,6,0.00
2013-2-16,51.0,32.6,18.6,24.2,19.5,14.6,92,63,33,30.62,30.21,6,1,10,0.00
2013-2-17,53.6,35.3,19.7,26.8,21.3,14.3,87,60,31,30.21,29.72,11,3,17,0.01
2013-2-18,44.5,31.9,23.0,18.2,15.1,10.5,78,52,29,30.23,29.92,9,2,12,0.00
2013-2-19,54.6,33.8,17.8,19.2,14.6,10.1,82,49,19,30.17,29.66,11,4,15,0.00
2013-2-20,49.5,38.2,24.3,28.0,20.9,14.7,76,51,31,29.69,29.48,14,4,18,0.00
2013-2-21,47.9,37.9,32.0,28.9,25.7,21.7,79,63,38,29.89,29.58,11,2,14,0.00
2013-2-22,39.3,31.1,22.0,28.1,22.9,16.8,92,73,45,30.20,29.88,13,4,14,0.05
2013-2-23,44.9,27.7,16.8,27.3,19.9,12.0,92,75,35,30.20,29.78,13,3,16,0.00
2013-2-24,35.9,27.8,20.2,26.0,19.6,14.5,85,72,56,30.23,29.86,10,2,12,0.10
2013-2-25,44.4,29.4,14.8,22.1,16.7,9.7,83,61,34,30.38,29.99,8,2,10,0.01
2013-2-26,41.8,31.5,22.0,25.1,19.8,15.2,87,64,35,30.34,29.93,13,4,14,0.01
2013-2-27,44.7,29.0,15.7,18.8,15.1,10.7,83,60,31,30.54,30.32,8,2,11,0.00
2013-2-28,47.2,29.7,14.9,19.5,15.4,9.8,82,59,31,30.61,30.43,9,2,12,0.00
2013-3-1,56.1,36.9,22.3,27.4,22.8,16.5,82,60,33,30.61,30.38,6,1,10,0.00
2013-3-2,61.1,39.6,22.2,30.6,24.8,17.8,85,60,31,30.61,30.12,6,1,10,0.00
2013-3-3,57.2,42.2,27.3,38.4,29.4,21.7,83,63,37,30.12,29.74,6,1,10,0.02
2013-3-4,54.2,41.1,22.7,41.4,26.7,13.2,90,61,25,30.28,29.70,15,4,20,0.01
2013-3-5,54.6,35.5,19.4,19.3,15.9,12.4,75,48,24,30.47,30.14,8,3,12,0.00
2013-3-6,64.4,40.3,18.6,29.1,21.7,12.8,86,52,26,30.18,29.80,12,2,17,0.00
2013-3-7,69.2,46.1,26.3,29.5,23.1,19.5,77,46,18,30.00,29.73,13,2,17,0.00
2013-3-8,54.9,41.0,32.4,39.4,30.1,19.8,88,67,36,29.83,29.58,13,2,13,0.11
2013-3-9,43.4,36.7,29.1,36.2,30.5,20.5,92,79,57,30.20,29.59,13,4,18,0.04
2013-3-10,53.5,37.4,22.4,26.5,22.5,16.3,81,58,34,30.38,30.17,5,2,10,0.00
2013-3-11,58.4,39.3,23.3,30.8,26.4,19.2,85,63,34,30.32,30.06,7,1,11,0.00
2013-3-12,60.9,44.5,31.1,35.6,30.3,25.6,85,61,34,30.30,30.11,7,1,11,0.00
2013-3-13,68.8,46.7,26.7,33.7,29.1,21.9,86,56,24,30.43,30.21,6,1,7,0.00
2013-3-14,72.9,49.5,27.8,35.6,29.7,22.4,83,52,25,30.42,30.10,7,2,11,0.00
2013-3-15,72.3,50.1,31.2,36.2,31.2,25.1,80,52,25,30.15,29.82,4,1,5,0.00
2013-3-16,66.6,54.1,40.8,40.2,34.8,31.3,69,49,32,29.83,29.62,10,3,12,0.00
2013-3-17,62.2,48.7,37.3,35.7,26.1,13.8,80,47,20,29.82,29.57,26,7,35,0.00
2013-3-18,57.9,43.2,28.1,21.3,17.6,13.1,65,38,21,30.03,29.82,20,6,26,0.00
2013-3-19,62.0,45.3,31.3,22.5,16.9,11.9,62,35,15,30.17,29.91,5,1,10,0.00
2013-3-20,55.5,42.2,24.2,24.9,17.9,11.6,61,39,24,30.21,29.75,7,2,10,0.00
2013-3-21,57.5,44.5,32.4,40.6,27.5,13.7,84,55,21,29.95,29.63,16,4,22,0.13
2013-3-22,55.0,38.1,22.9,24.8,17.5,7.8,81,47,18,29.94,29.61,22,5,27,0.00
2013-3-23,43.5,32.2,21.7,16.3,9.2,5.6,56,39,25,30.25,29.86,14,5,17,0.00
2013-3-24,44.2,29.9,13.4,12.6,9.2,5.0,72,44,23,30.36,30.17,11,3,15,0.00
2013-3-25,50.9,35.1,22.5,12.3,9.1,7.1,54,36,20,30.39,30.15,9,3,14,0.00
2013-3-26,65.5,42.7,20.7,25.6,17.2,7.7,67,39,21,30.21,29.81,11,2,13,0.00
2013-3-27,70.4,50.2,26.9,28.9,23.0,17.1,68,38,18,30.04,29.81,16,3,22,0.00
2013-3-28,72.9,52.7,31.7,30.1,24.8,20.1,62,37,19,30.01,29.83,14,3,17,0.00
2013-3-29,74.0,53.9,36.1,35.8,29.3,22.8,61,41,22,30.11,29.87,13,2,18,0.00
2013-3-30,73.8,53.0,31.9,35.1,30.6,24.6,76,46,23,30.15,29.90,15,3,21,0.00
2013-3-31,74.2,53.4,29.6,35.3,26.6,19.7,73,41,14,30.10,29.77,12,3,16,0.00
2013-4-1,71.0,53.1,38.3,43.8,31.0,19.1,65,44,19,29.89,29.61,17,4,19,0.02
2013-4-2,59.5,46.9,35.2,39.8,34.0,28.0,78,62,37,29.99,29.76,16,4,22,0.01
2013-4-3,69.5,49.5,30.1,37.1,30.6,25.0,84,54,24,30.16,29.94,12,2,13,0.00
2013-4-4,75.7,54.1,30.5,33.8,28.5,21.5,74,41,20,30.18,29.82,14,2,18,0.00
2013-4-5,75.0,57.0,42.7,39.6,31.8,27.9,60,41,22,29.84,29.59,20,5,22,0.00
2013-4-6,69.4,53.6,38.3,37.6,30.8,25.8,68,45,22,29.91,29.69,20,3,23,0.00
2013-4-7,70.5,54.3,37.7,38.2,30.9,22.5,78,47,20,29.82,29.47,21,5,28,0.00
2013-4-8,69.2,50.7,41.5,42.1,31.0,22.3,81,49,25,29.48,29.16,27,8,37,0.07
2013-4-9,43.5,36.3,26.8,33.2,23.2,11.2,83,60,39,30.14,29.31,10,5,15,0.00
2013-4-10,53.5,37.2,23.1,23.0,14.4,9.4,56,41,24,30.29,29.98,7,3,11,0.00
2013-4-11,60.3,44.0,32.3,36.7,28.5,20.6,69,55,40,30.02,29.75,5,1,9,0.00
2013-4-12,69.6,50.1,31.7,36.0,28.0,22.3,80,48,19,29.90,29.73,9,2,13,0.00
2013-4-13,72.6,50.6,27.1,40.2,28.0,18.6,74,45,22,29.80,29.22,27,5,35,0.01
2013-4-14,59.7,50.1,37.8,39.3,21.9,16.1,70,35,19,29.71,29.42,15,6,18,0.02
2013-4-15,48.6,43.0,39.1,37.8,32.3,18.3,86,68,31,29.68,29.36,12,4,14,0.39
2013-4-16,55.0,42.8,32.7,40.5,34.8,29.0,92,74,50,29.86,29.51,21,6,24,0.05
2013-4-17,41.4,33.7,28.0,29.4,23.0,14.2,89,67,39,30.23,29.80,11,2,15,0.27
2013-4-18,47.8,35.2,24.8,20.3,17.4,12.5,78,51,29,30.35,30.21,7,3,11,0.00
2013-4-19,57.3,42.4,23.9,30.4,22.8,18.4,82,50,27,30.40,29.93,11,3,17,0.00
2013-4-20,60.9,50.4,43.4,38.0,34.5,30.6,69,55,38,30.00,29.84,10,4,15,0.00
2013-4-21,66.9,50.7,31.3,38.6,30.9,25.0,86,53,21,30.16,29.80,14,3,19,0.00
2013-4-22,68.3,54.9,37.5,36.4,30.5,24.9,72,42,23,29.85,29.64,18,5,23,0.00
2013-4-23,57.2,47.1,36.3,27.2,18.2,11.0,51,33,18,30.07,29.79,12,5,20,0.00
2013-4-24,65.9,50.0,35.1,23.9,20.0,16.7,55,33,18,30.14,29.97,7,3,11,0.00
2013-4-25,71.5,52.9,31.4,27.4,23.0,19.7,69,35,17,30.04,29.70,15,4,19,0.00
2013-4-26,75.9,56.2,33.3,29.0,24.9,21.3,62,34,16,30.06,29.82,9,2,13,0.00
2013-4-27,79.1,57.7,33.2,30.5,26.2,21.1,66,34,15,30.19,29.84,9,3,13,0.00
2013-4-28,82.2,60.3,35.2,36.2,29.7,24.0,66,36,17,29.99,29.62,13,3,16,0.00
2013-4-29,82.6,63.4,38.7,38.1,33.3,29.0,71,37,17,29.76,29.41,19,4,23,0.00
2013-4-30,83.3,61.9,42.8,41.7,35.6,31.5,71,42,19,29.76,29.33,21,6,31,0.04
2013-5-1,61.0,49.0,37.3,39.4,26.3,15.2,86,48,17,30.40,29.75,12,4,18,0.11
2013-5-2,64.8,47.6,29.6,24.5,19.2,16.5,65,35,17,30.60,30.28,10,3,12,0.00
2013-5-3,73.6,52.1,27.4,29.3,23.1,19.4,73,37,17,30.34,29.76,9,3,12,0.00
2013-5-4,80.0,57.8,32.8,32.5,27.5,22.9,68,36,15,29.85,29.56,10,3,15,0.00
2013-5-5,79.8,65.7,48.2,34.9,30.2,24.0,47,28,16,29.73,29.55,13,4,20,0.00
2013-5-6,73.8,59.0,49.8,46.3,39.0,27.8,85,50,27,29.82,29.65,19,5,26,0.02
2013-5-7,63.6,52.8,43.6,47.0,43.7,39.1,87,72,47,29.94,29.79,11,3,12,0.09
2013-5-8,59.7,50.5,43.6,46.2,42.3,40.0,92,75,54,30.00,29.81,9,2,12,0.40
2013-5-9,72.3,58.1,47.9,45.7,42.4,37.0,85,59,36,29.97,29.83,13,4,13,0.01
2013-5-10,77.2,59.7,39.5,43.9,39.6,35.4,87,53,24,30.06,29.88,13,2,13,0.00
2013-5-11,81.8,63.7,43.3,41.5,37.8,32.7,78,43,20,30.16,29.92,7,2,10,0.00
2013-5-12,85.5,66.0,45.0,44.4,40.7,37.8,79,44,21,30.11,29.83,9,2,13,0.00
2013-5-13,90.4,68.9,46.0,46.3,41.8,38.9,79,43,19,30.01,29.71,9,2,11,0.00
2013-5-14,90.0,71.6,46.8,47.3,43.3,39.6,77,41,20,29.81,29.52,10,3,14,0.00
2013-5-15,89.0,73.9,62.5,50.4,45.1,42.0,52,37,22,29.66,29.43,11,5,16,0.00
2013-5-16,89.7,72.4,55.5,48.0,41.9,32.5,62,36,18,29.68,29.41,14,4,17,0.00
2013-5-17,83.2,69.0,47.3,42.2,34.5,27.9,64,31,17,29.62,29.45,14,6,18,0.00
2013-5-18,73.5,64.4,54.1,42.2,38.1,34.4,55,38,28,29.73,29.57,21,6,26,0.00
2013-5-19,71.2,56.6,39.2,40.5,36.2,32.6,79,50,26,29.85,29.70,18,4,19,0.00
2013-5-20,71.9,55.6,39.8,48.0,38.8,32.7,77,55,34,29.92,29.74,11,2,16,0.03
2013-5-21,78.7,62.1,40.9,42.4,38.6,32.2,82,46,22,29.96,29.59,10,2,16,0.00
2013-5-22,87.9,69.5,46.3,42.9,37.3,32.6,69,35,16,29.64,29.31,16,4,20,0.00
2013-5-23,89.5,76.7,63.7,38.1,31.4,25.0,30,20,13,29.53,29.32,20,9,30,0.00
2013-5-24,85.0,71.0,54.9,36.5,30.5,24.5,42,24,14,29.70,29.44,16,4,22,0.00
2013-5-25,89.6,68.1,41.5,41.3,32.3,23.6,66,31,14,29.78,29.53,14,3,18,0.00
2013-5-26,89.3,67.4,41.9,39.8,32.4,26.9,65,31,14,29.76,29.53,13,3,15,0.00
2013-5-27,83.9,66.8,41.9,36.8,31.1,24.4,60,29,16,29.70,29.44,16,4,21,0.00
2013-5-28,81.0,63.4,45.7,46.1,37.4,32.4,74,42,19,29.57,29.34,23,5,32,0.00
2013-5-29,72.6,59.6,44.7,47.0,38.3,29.8,86,51,24,29.63,29.47,17,6,23,0.00
2013-5-30,76.6,62.3,41.2,37.9,32.7,29.6,69,36,19,29.72,29.56,23,7,28,0.00
2013-5-31,79.1,65.4,52.9,35.3,29.4,22.5,47,28,14,29.91,29.67,18,5,24,0.00
2013-6-1,82.3,63.9,42.0,41.3,32.1,24.0,58,32,18,30.06,29.75,8,2,13,0.00
2013-6-2,93.1,69.9,42.5,39.7,35.5,30.1,67,32,15,29.86,29.43,16,4,17,0.00
2013-6-3,91.6,71.1,45.5,48.5,38.2,32.4,64,34,15,29.58,29.45,20,4,30,0.00
2013-6-4,91.6,72.7,47.3,44.4,38.9,33.3,63,33,16,29.70,29.49,26,5,46,0.00
2013-6-5,89.5,73.3,52.9,43.0,38.0,32.5,52,29,17,29.75,29.57,10,2,14,0.00
2013-6-6,92.9,72.2,46.2,45.3,40.0,36.0,70,35,16,29.78,29.53,7,2,10,0.00
2013-6-7,94.2,73.1,52.3,48.3,42.8,36.9,65,37,18,29.73,29.43,9,2,12,0.00
2013-6-8,97.3,77.1,53.6,49.1,43.9,37.9,65,34,16,29.60,29.42,11,2,12,0.00
2013-6-9,100.9,80.2,54.6,52.8,44.1,38.2,59,31,15,29.75,29.44,6,2,10,0.00
2013-6-10,101.9,79.3,52.4,49.7,42.8,33.0,67,33,13,29.62,29.39,20,3,24,0.00
2013-6-11,91.9,76.3,52.3,45.7,37.8,33.7,59,28,15,29.68,29.42,23,7,29,0.00
2013-6-12,95.9,77.4,49.7,45.8,37.5,32.6,61,27,13,29.76,29.57,16,5,20,0.00
2013-6-13,95.2,78.0,57.8,50.8,41.2,29.9,54,30,15,29.69,29.41,25,6,32,0.00
2013-6-14,92.0,73.3,49.1,43.6,33.2,22.0,46,25,12,29.70,29.49,18,4,27,0.00
2013-6-15,93.5,74.2,48.1,42.9,36.7,29.5,60,29,15,29.76,29.56,23,4,26,0.00
2013-6-16,93.6,77.9,59.1,49.7,44.9,39.5,55,33,17,29.76,29.54,13,3,18,0.00
2013-6-17,96.9,80.4,64.8,48.9,42.8,36.2,43,28,15,29.74,29.50,14,4,19,0.00
2013-6-18,96.8,79.6,63.1,46.5,38.6,28.2,38,25,12,29.63,29.37,15,5,20,0.00
2013-6-19,94.0,74.6,47.7,43.4,33.4,28.0,57,27,11,29.53,29.30,21,6,33,0.00
2013-6-20,92.8,74.6,48.6,39.1,32.7,26.1,53,24,12,29.62,29.41,16,5,23,0.00
2013-6-21,94.8,72.0,46.4,39.9,34.0,29.4,62,30,12,29.69,29.44,20,4,25,0.00
2013-6-22,90.3,72.6,46.0,44.9,35.7,31.3,64,30,14,29.63,29.45,17,5,23,0.00
2013-6-23,94.6,74.9,51.0,50.3,38.4,30.2,58,30,15,29.67,29.34,7,2,10,0.00
2013-6-24,89.0,73.5,49.6,44.7,38.2,33.8,66,32,15,29.57,29.43,18,5,28,0.00
2013-6-25,91.1,76.0,56.2,48.7,43.2,36.6,54,33,20,29.69,29.47,16,3,21,0.00
2013-6-26,100.8,77.2,51.5,50.9,45.8,40.4,69,38,17,29.79,29.57,11,2,14,0.00
2013-6-27,106.0,81.9,54.0,57.5,47.4,41.1,66,34,15,29.86,29.59,9,2,12,0.00
2013-6-28,108.2,83.2,57.6,53.6,48.2,44.0,65,33,13,29.83,29.61,9,3,14,0.00
2013-6-29,106.2,83.3,61.7,58.5,50.6,45.9,66,35,16,29.77,29.50,19,2,23,0.00
2013-6-30,103.4,81.9,58.6,55.3,50.8,47.0,68,38,19,29.79,29.50,10,2,14,0.00
2013-7-1,102.3,84.5,60.2,55.4,49.7,45.4,67,33,17,29.78,29.53,7,2,11,0.00
2013-7-2,101.9,83.1,60.7,55.2,49.4,44.6,65,34,17,29.76,29.50,6,2,10,0.00
2013-7-3,103.2,81.2,56.9,51.7,47.8,42.8,66,35,16,29.70,29.48,14,4,17,0.00
2013-7-4,98.4,83.4,71.6,57.4,50.9,47.3,50,34,21,29.62,29.39,6,2,7,0.00
2013-7-5,97.7,83.4,64.8,58.7,52.1,46.9,63,36,21,29.54,29.32,20,5,23,0.00
2013-7-6,98.2,80.7,66.2,57.0,52.3,47.8,60,39,23,29.60,29.42,22,2,25,0.00
2013-7-7,100.5,80.1,60.3,58.8,53.5,49.4,71,43,22,29.74,29.50,25,3,31,0.01
2013-7-8,96.8,76.6,58.5,58.8,53.8,46.6,86,52,19,29.83,29.61,14,3,21,0.00
2013-7-9,102.4,83.2,57.2,57.2,51.2,47.4,73,38,17,29.83,29.56,10,2,15,0.00
2013-7-10,104.0,82.4,58.8,55.8,48.9,42.6,69,36,14,29.76,29.45,12,2,15,0.00
2013-7-11,100.6,76.3,58.2,61.9,51.6,40.5,81,46,22,29.73,29.45,12,2,17,0.12
2013-7-12,93.0,76.7,61.5,63.0,59.9,54.6,88,60,32,29.76,29.53,14,3,18,0.00
2013-7-13,96.9,80.7,67.4,65.4,58.9,54.7,76,50,29,29.76,29.54,14,3,17,0.01
2013-7-14,98.0,81.4,66.0,61.9,56.8,53.1,78,46,23,29.78,29.52,13,2,14,0.04
2013-7-15,101.2,80.4,61.9,61.4,56.0,52.4,77,48,22,29.68,29.39,18,3,24,0.09
2013-7-16,94.9,79.3,63.5,63.7,59.9,55.5,83,55,31,29.75,29.56,7,2,12,0.00
2013-7-17,95.3,79.5,64.8,66.4,61.4,55.5,90,57,35,29.84,29.65,13,3,15,0.34
2013-7-18,97.2,79.3,66.6,61.8,58.7,55.6,77,52,28,29.86,29.58,15,5,16,0.00
2013-7-19,100.7,81.1,64.0,61.4,57.7,51.6,82,49,23,29.83,29.49,11,4,15,0.00
2013-7-20,100.4,82.0,65.6,64.7,55.9,49.5,69,44,19,29.67,29.39,5,2,7,0.00
2013-7-21,104.0,82.0,57.2,63.8,52.2,46.6,76,41,16,29.64,29.40,4,1,6,0.00
2013-7-22,103.9,84.2,65.5,58.8,52.1,46.9,64,36,16,29.67,29.44,4,1,9,0.00
2013-7-23,102.1,81.0,57.8,68.4,50.4,44.5,73,39,15,29.73,29.51,5,1,8,0.00
2013-7-24,94.1,79.3,64.1,58.8,52.8,49.2,66,42,25,29.73,29.57,12,2,15,0.00
2013-7-25,96.0,79.1,58.7,58.9,53.8,49.7,75,45,24,29.79,29.60,14,2,16,0.00
2013-7-26,102.0,84.0,69.0,57.4,52.1,48.6,57,35,19,29.84,29.56,6,3,10,0.00
2013-7-27,93.7,75.6,62.5,62.3,55.3,46.7,78,51,29,29.79,29.56,13,2,20,0.10
2013-7-28,88.4,73.1,63.8,63.9,59.4,53.7,87,65,37,29.74,29.52,12,3,16,0.30
2013-7-29,85.1,69.8,59.5,62.7,57.0,49.1,90,67,29,29.88,29.70,11,2,12,0.26
2013-7-30,94.2,74.7,55.8,58.8,53.4,44.2,88,53,19,30.01,29.77,9,2,11,0.00
2013-7-31,99.9,80.3,64.1,56.1,51.8,47.9,68,40,20,29.95,29.65,9,3,11,0.00
2013-8-1,78.2,67.4,58.9,61.5,56.6,51.2,82,69,39,29.98,29.67,17,3,18,0.10
2013-8-2,92.4,74.9,57.1,62.7,58.1,53.4,89,60,33,29.88,29.61,6,1,9,0.00
2013-8-3,94.4,78.3,63.0,62.0,56.7,51.0,77,50,30,29.83,29.66,14,3,17,0.00
2013-8-4,94.0,78.2,65.8,57.0,53.8,51.4,62,44,27,29.83,29.67,14,5,17,0.00
2013-8-5,91.8,78.0,67.3,61.1,55.4,49.4,67,47,31,29.83,29.61,6,2,8,0.00
2013-8-6,95.6,76.6,66.5,60.0,53.1,49.5,60,45,26,29.75,29.57,13,4,18,0.15
2013-8-7,88.4,72.5,60.6,56.8,52.9,46.5,82,53,27,29.79,29.64,16,4,22,0.00
2013-8-8,87.7,71.9,61.5,56.3,51.7,45.8,70,51,25,29.81,29.64,15,3,22,0.01
2013-8-9,90.2,72.5,61.2,54.5,51.0,47.5,75,49,25,29.87,29.68,13,4,26,0.14
2013-8-10,82.1,68.0,59.8,53.1,49.2,45.3,75,53,29,29.97,29.80,17,5,21,0.00
2013-8-11,91.9,70.4,49.9,53.2,49.7,45.5,87,53,25,30.09,29.72,8,2,11,0.00
2013-8-12,92.0,72.2,53.9,52.5,49.0,45.9,78,47,24,29.92,29.72,21,2,23,0.00
2013-8-13,91.5,72.6,52.7,55.3,48.8,45.1,81,48,22,29.97,29.71,8,2,13,0.00
2013-8-14,94.8,76.3,59.0,52.7,45.7,40.2,62,36,16,29.89,29.66,7,2,11,0.00
2013-8-15,96.9,75.7,56.8,54.4,44.6,39.7,66,36,15,29.89,29.66,7,2,11,0.00
2013-8-16,100.4,75.3,50.7,57.3,46.0,41.0,72,41,16,29.91,29.65,8,1,10,0.00
2013-8-17,93.3,73.8,52.7,54.8,48.1,43.3,74,44,22,29.87,29.68,20,3,27,0.00
2013-8-18,97.5,77.3,54.4,56.2,51.4,47.2,78,44,22,29.89,29.62,6,1,7,0.00
2013-8-19,101.6,82.5,66.6,57.1,51.8,48.4,53,36,19,29.80,29.52,7,2,11,0.00
2013-8-20,94.5,78.1,59.0,59.0,52.9,49.5,73,44,25,29.77,29.60,11,2,14,0.00
2013-8-21,97.6,79.9,64.4,58.1,52.9,50.6,63,41,23,29.82,29.59,8,2,12,0.00
2013-8-22,91.5,77.8,65.6,58.8,55.4,52.6,70,48,30,29.83,29.66,9,1,12,0.00
2013-8-23,86.7,71.3,59.0,60.7,55.1,51.8,81,59,35,29.78,29.62,18,2,34,0.25
2013-8-24,87.9,72.7,59.2,58.0,54.8,50.3,83,57,32,29.86,29.68,15,1,15,0.00
2013-8-25,72.2,65.5,62.4,62.1,58.8,55.5,88,80,62,29.98,29.81,3,0,5,0.27
2013-8-26,81.7,69.2,61.8,64.7,61.3,59.0,91,77,50,30.03,29.83,4,0,4,0.02
2013-8-27,86.2,72.8,61.9,65.5,60.8,56.7,91,69,41,29.93,29.72,9,2,15,0.17
2013-8-28,92.8,74.7,57.7,62.2,57.3,53.3,89,59,30,29.87,29.69,8,1,11,0.00
2013-8-29,97.2,77.6,57.8,59.0,55.8,52.5,85,52,25,29.89,29.71,6,1,7,0.00
2013-8-30,99.4,80.2,62.0,59.9,56.5,52.2,80,48,21,29.87,29.62,11,2,13,0.00
2013-8-31,95.6,80.7,67.5,62.2,56.6,53.1,69,46,26,29.77,29.55,7,1,14,0.00
2013-9-1,94.4,80.5,69.6,61.5,56.5,53.1,64,45,31,29.75,29.54,7,2,9,0.00
2013-9-2,92.9,76.8,63.2,67.1,58.9,55.5,79,57,34,29.82,29.60,12,1,12,0.10
2013-9-3,96.5,76.4,57.7,60.3,56.4,52.9,84,55,29,29.85,29.67,8,1,11,0.00
2013-9-4,98.3,81.3,63.8,59.2,56.3,52.7,77,47,23,29.87,29.63,5,1,10,0.00
2013-9-5,97.4,81.8,64.4,60.5,56.2,53.2,72,44,27,29.85,29.63,9,1,11,0.00
2013-9-6,97.6,82.6,69.9,60.5,54.9,50.1,57,40,21,29.85,29.56,9,2,13,0.00
2013-9-7,97.5,82.0,67.9,57.4,52.8,48.0,59,38,21,29.78,29.49,13,2,20,0.01
2013-9-8,83.7,71.8,62.3,58.4,55.3,53.1,77,58,38,29.73,29.63,10,1,13,0.00
2013-9-9,65.0,62.0,57.4,60.5,58.1,53.9,90,87,74,29.82,29.67,13,0,25,1.04
2013-9-10,65.0,62.1,60.2,60.6,58.8,57.5,92,89,82,29.87,29.77,3,0,4,0.45
2013-9-11,78.7,67.7,61.3,62.8,60.3,58.4,92,79,52,29.89,29.76,4,1,6,0.16
2013-9-12,79.7,69.6,61.3,60.9,57.3,53.6,83,66,45,29.88,29.67,10,2,18,0.05
2013-9-13,78.9,68.6,60.3,62.0,56.3,52.4,83,66,43,29.79,29.57,6,1,10,0.09
2013-9-14,74.4,64.5,59.0,58.2,56.2,53.2,88,76,49,29.76,29.63,5,1,7,0.12
2013-9-15,78.7,65.7,55.5,57.7,54.7,51.4,89,70,46,29.88,29.74,4,0,5,0.00
2013-9-16,84.9,69.3,54.8,58.1,54.2,50.1,87,62,35,29.94,29.71,4,1,11,0.00
2013-9-17,77.5,64.6,54.5,61.0,53.6,49.6,86,69,44,29.82,29.48,8,1,0,0.08
2013-9-18,85.5,69.3,55.9,62.2,54.1,46.7,91,63,28,29.64,29.47,13,2,0,0.03
2013-9-19,79.0,62.9,49.2,52.1,44.1,35.5,84,55,22,29.87,29.63,6,0,12,0.00
2013-9-20,83.0,63.1,44.3,50.6,40.5,36.3,81,48,21,29.99,29.72,5,1,6,0.00
2013-9-21,86.2,67.2,48.2,50.2,46.2,42.5,83,52,25,29.85,29.44,11,2,0,0.00
2013-9-22,74.1,65.6,50.8,52.9,48.7,44.9,85,56,41,29.59,29.33,18,3,18,0.48
2013-9-23,70.8,57.4,44.3,50.2,44.9,40.4,90,67,35,29.98,29.58,5,1,6,0.01
2013-9-24,77.1,59.4,43.4,48.1,43.0,39.3,86,59,30,30.06,29.65,6,1,11,0.00
2013-9-25,82.5,63.7,42.3,49.3,39.9,35.8,86,48,21,29.65,29.22,22,5,35,0.00
2013-9-26,79.4,67.7,47.6,42.7,37.3,32.7,68,35,20,29.47,29.25,22,9,29,0.00
2013-9-27,60.4,52.8,41.7,46.8,38.3,31.1,80,60,34,30.07,29.40,17,4,20,0.05
2013-9-28,65.1,47.9,32.3,39.0,33.9,28.9,89,63,31,30.30,30.07,4,0,8,0.01
2013-9-29,73.0,51.5,32.8,42.6,35.6,28.5,86,60,28,30.25,29.90,2,0,6,0.00
2013-9-30,80.7,57.0,37.1,44.2,38.8,32.7,85,57,24,29.99,29.70,3,0,4,0.00
2013-10-1,81.6,58.2,38.3,45.4,39.3,33.3,84,56,23,29.97,29.69,3,0,6,0.00
2013-10-2,78.9,57.5,37.4,44.3,38.4,32.7,85,54,24,29.92,29.56,4,0,5,0.00
2013-10-3,77.0,54.6,36.8,44.2,37.8,32.7,85,58,28,29.92,29.41,17,5,23,0.19
2013-10-4,52.2,41.1,34.6,37.6,30.8,24.7,92,69,38,30.38,29.85,9,1,13,0.04
2013-10-5,58.2,43.8,34.4,33.8,30.2,27.6,85,62,36,30.45,30.28,5,1,10,0.00
2013-10-6,68.5,46.4,33.3,40.3,32.9,27.9,83,63,32,30.45,30.16,6,1,13,0.00
2013-10-7,70.3,52.2,32.4,43.1,36.0,28.7,88,59,31,30.30,29.93,4,1,0,0.00
2013-10-8,77.4,54.2,36.0,43.6,36.6,29.0,87,58,22,29.90,29.58,12,1,3,0.00
2013-10-9,76.6,55.3,41.1,44.8,36.0,31.9,77,53,22,29.74,29.49,11,1,16,0.00
2013-10-10,64.8,50.8,44.3,45.3,41.8,35.4,87,73,34,29.79,29.46,17,2,20,0.36
2013-10-11,62.1,49.9,40.6,45.5,40.4,35.0,90,73,40,30.00,29.78,10,1,15,0.02
2013-10-12,64.9,48.5,36.6,42.4,38.0,33.1,92,70,39,30.09,29.89,5,0,7,0.01
2013-10-13,72.2,54.5,38.3,44.7,39.0,32.8,83,59,29,29.96,29.66,15,2,16,0.00
2013-10-14,58.6,49.4,43.0,44.7,40.5,37.8,89,72,46,30.07,29.74,17,2,18,0.09
2013-10-15,56.9,44.9,37.3,38.5,34.1,28.2,87,68,41,30.14,30.00,8,0,8,0.00
2013-10-16,58.4,42.3,29.3,31.1,28.0,23.6,81,60,32,30.27,30.09,4,0,7,0.00
2013-10-17,62.0,43.6,28.7,33.7,30.2,24.5,86,63,30,30.23,29.91,4,0,8,0.00
2013-10-18,59.7,43.9,29.3,34.3,27.8,24.8,85,58,28,30.24,29.95,9,1,12,0.00
2013-10-19,62.0,42.4,25.5,31.9,27.2,20.8,84,60,29,30.33,30.04,5,0,9,0.00
2013-10-20,64.3,45.1,29.4,34.6,31.2,24.9,85,62,33,30.11,29.88,1,0,0,0.00
2013-10-21,68.3,46.1,29.5,36.6,30.9,25.0,86,60,26,30.22,29.95,4,0,11,0.00
2013-10-22,69.1,46.8,28.3,36.1,30.5,23.7,86,58,28,30.36,30.07,6,1,11,0.00
2013-10-23,70.8,47.5,28.9,37.4,31.4,24.4,86,59,26,30.27,30.00,5,0,8,0.00
2013-10-24,71.3,48.4,30.5,37.7,32.3,25.7,85,59,28,30.23,29.97,5,0,11,0.00
2013-10-25,69.3,49.1,33.0,40.7,34.9,28.1,84,62,33,30.22,30.02,5,0,7,0.00
2013-10-26,72.6,48.6,31.1,40.6,34.3,26.9,86,62,28,30.33,30.08,5,1,7,0.00
2013-10-27,68.0,47.9,29.3,38.6,33.2,24.8,86,60,34,30.18,29.63,3,0,5,0.00
2013-10-28,72.3,59.6,42.5,35.9,31.1,27.2,72,37,20,29.63,29.42,23,8,29,0.00
2013-10-29,61.2,48.5,39.5,41.1,36.3,28.5,88,66,29,29.88,29.50,24,5,31,0.24
2013-10-30,49.0,41.4,37.2,39.7,36.1,33.0,92,82,57,30.01,29.84,8,0,10,0.18
2013-10-31,53.7,41.3,34.4,40.3,34.8,30.9,91,79,51,30.15,29.99,3,0,6,0.00
2013-11-1,61.9,43.0,30.2,37.6,33.1,26.8,89,71,35,30.32,30.09,3,0,6,0.01
2013-11-2,60.7,43.1,32.7,35.4,31.1,27.6,86,65,36,30.32,29.90,4,1,7,0.00
2013-11-3,63.8,42.9,28.9,39.7,28.4,14.7,88,61,28,29.95,29.57,16,2,22,0.00
2013-11-4,45.7,36.7,27.6,29.6,22.5,13.8,80,57,37,30.05,29.92,8,1,9,0.00
2013-11-5,47.1,35.8,23.9,29.9,21.0,15.4,82,58,30,30.41,30.01,9,1,11,0.00
2013-11-6,50.3,33.3,19.3,22.5,18.9,14.4,88,60,33,30.60,30.40,3,0,4,0.00
2013-11-7,56.8,37.1,21.2,31.2,24.0,16.5,85,63,33,30.67,30.15,6,1,9,0.00
2013-11-8,63.1,40.4,24.4,32.5,27.1,20.0,85,63,29,30.25,29.97,4,0,6,0.00
2013-11-9,62.9,41.6,23.9,32.6,27.1,19.2,85,60,30,30.33,30.10,4,0,6,0.00
2013-11-10,64.6,41.5,25.2,32.6,26.8,20.5,84,60,28,30.40,30.16,5,0,5,0.00
2013-11-11,64.9,40.9,23.1,33.3,26.2,18.4,85,61,28,30.51,30.26,5,1,9,0.00
2013-11-12,67.8,41.6,23.9,32.6,26.4,19.5,85,60,26,30.64,30.34,5,1,7,0.00
2013-11-13,55.1,39.0,24.0,31.1,27.0,19.0,83,64,37,30.50,30.09,2,0,4,0.00
2013-11-14,60.7,41.6,26.9,34.5,27.6,21.3,85,62,29,30.24,29.78,3,0,5,0.00
2013-11-15,58.7,38.6,21.4,35.8,26.5,16.5,83,64,37,29.87,29.55,8,1,13,0.00
2013-11-16,46.7,35.6,25.2,36.9,30.5,21.0,88,82,62,29.72,29.54,2,0,6,0.10
2013-11-17,58.9,38.3,26.6,38.2,29.7,23.4,89,74,41,30.22,29.72,2,0,3,0.01
2013-11-18,59.1,37.6,22.5,34.0,26.6,18.7,92,68,36,30.41,30.11,4,0,6,0.00
2013-11-19,47.1,36.2,24.6,33.5,27.8,20.2,86,73,51,30.13,29.90,2,0,4,0.01
2013-11-20,50.3,40.5,27.0,38.1,33.5,23.4,89,77,58,30.01,29.78,1,0,3,0.15
2013-11-21,47.3,41.9,36.3,43.1,37.2,25.5,95,84,64,30.25,29.83,7,0,12,0.41
2013-11-22,39.7,35.2,32.6,30.4,26.0,22.1,89,70,56,30.37,30.24,8,1,11,0.05
2013-11-23,38.2,34.4,32.6,35.2,31.7,29.7,91,90,87,30.36,30.20,1,0,1,0.70
2013-11-24,43.4,37.1,33.8,38.6,33.7,31.5,92,87,75,30.23,30.08,5,1,10,0.07
2013-11-25,50.1,35.4,27.9,37.4,29.2,24.5,91,80,44,30.46,30.14,2,0,5,0.01
2013-11-26,50.0,34.0,23.5,31.4,26.1,20.1,89,75,45,30.59,30.38,4,0,9,0.00
2013-11-27,48.6,32.9,22.6,35.3,26.3,19.6,90,78,49,30.52,30.24,1,0,4,0.01
2013-11-28,42.1,34.7,26.9,32.7,29.8,23.5,90,82,67,30.35,30.24,7,1,11,0.01
2013-11-29,39.1,36.4,34.1,32.0,30.2,29.3,85,78,69,30.47,30.32,0,0,1,0.00
2013-11-30,40.9,37.9,35.7,30.3,29.4,28.4,78,71,63,30.46,30.34,2,0,3,0.00
2013-12-1,38.9,36.9,35.4,30.9,29.5,28.4,81,74,67,30.47,30.32,3,0,4,0.00
2013-12-2,37.2,35.4,33.6,31.7,30.1,28.7,86,81,75,30.34,29.85,2,0,5,0.00
2013-12-3,41.7,35.3,29.6,34.2,29.6,25.7,89,80,67,29.85,29.45,12,1,14,0.13
2013-12-4,29.7,17.9,-5.2,26.9,14.4,-10.0,90,86,79,30.39,29.45,11,3,15,0.03
2013-12-5,18.0,-0.5,-9.9,12.9,-5.4,-15.1,89,79,77,30.51,30.31,4,0,4,0.01
2013-12-6,19.1,2.0,-8.6,13.5,-3.0,-13.6,82,79,77,30.65,30.42,3,0,3,0.00
2013-12-7,23.3,17.4,4.0,20.3,13.5,-0.5,92,84,80,30.48,29.83,4,0,8,0.00
2013-12-8,26.1,16.2,-2.1,20.1,10.4,-7.3,88,78,64,30.41,29.83,9,3,13,0.00
2013-12-9,18.9,3.7,-7.6,8.8,-2.5,-12.9,80,75,61,31.01,30.40,5,0,6,0.00
2013-12-10,18.4,2.5,-9.8,7.0,-4.0,-15.0,80,74,58,31.04,30.77,2,0,2,0.00
2013-12-11,22.7,7.5,-2.2,11.1,1.0,-7.1,81,75,58,31.05,30.73,3,0,4,0.00
2013-12-12,24.4,5.4,-5.2,14.0,-0.7,-10.2,81,76,62,31.06,30.62,3,0,4,0.01
2013-12-13,18.9,6.4,-3.8,11.1,0.9,-8.8,81,78,68,30.72,30.49,3,0,4,0.00
2013-12-14,27.2,9.8,-3.0,16.1,3.8,-7.9,82,76,61,30.94,30.69,4,0,5,0.00
2013-12-15,30.7,13.3,3.1,20.0,7.5,-1.4,83,78,62,30.93,30.69,3,0,5,0.01
2013-12-16,31.1,13.5,2.6,21.1,7.9,-1.9,92,79,64,30.91,30.69,3,0,5,0.01
2013-12-17,31.5,14.0,4.2,21.0,8.9,-0.3,92,80,65,30.94,30.65,3,0,4,0.00
2013-12-18,27.0,17.8,7.7,21.3,13.2,3.6,86,82,75,30.65,30.08,4,0,5,0.00
2013-12-19,37.8,25.8,16.1,27.0,20.4,12.4,92,80,64,30.09,29.77,4,0,5,0.00
2013-12-20,37.4,26.1,17.0,28.9,21.5,13.4,87,83,69,29.94,29.82,3,0,5,0.00
2013-12-21,32.2,23.0,10.5,26.8,19.3,6.6,92,86,77,30.22,29.80,2,0,3,0.02
2013-12-22,27.2,17.3,8.6,24.1,13.7,4.8,89,86,84,30.59,30.22,3,0,4,0.01
2013-12-23,36.9,20.9,10.4,24.9,15.2,6.8,86,79,60,30.76,30.59,4,0,7,0.00
2013-12-24,37.0,19.4,9.5,26.2,14.2,5.4,86,80,62,30.73,30.48,4,0,6,0.00
2013-12-25,35.9,16.7,4.3,23.3,9.8,-0.1,87,75,52,30.90,30.68,6,1,11,0.00
2013-12-26,33.8,15.1,4.0,19.7,8.1,-0.6,83,74,52,30.89,30.64,4,1,5,0.00
2013-12-27,37.3,16.9,5.2,21.7,10.3,0.9,92,76,52,30.86,30.54,4,1,6,0.00
2013-12-28,28.6,16.6,7.4,20.7,11.4,3.3,92,80,69,30.53,30.27,4,0,5,0.00
2013-12-29,39.7,20.4,8.0,22.6,13.0,3.8,85,74,45,30.58,30.33,3,0,5,0.00
2013-12-30,35.1,17.7,6.0,21.1,11.2,1.7,92,76,56,30.72,30.44,4,1,5,0.00
2013-12-31,36.5,24.7,10.3,24.0,18.4,5.9,85,77,59,30.61,30.30,3,0,5,0.00
2014-1-1,39.1,23.4,12.4,25.8,16.9,8.3,86,77,58,30.61,30.31,4,1,5,0.00
2014-1-2,39.2,19.1,6.8,24.1,12.5,2.5,92,76,51,30.74,30.47,4,0,5,0.00